172P/Yeung (2017)

Japanese version
Home page
Updated on February 21, 2021

---------------------------------------------------------------------

* Profile

* Pictures

* Orbital Elements

Epoch 2017 Mar. 28.0 TT = JDT 2457840.5
T 2017 Mar. 13.11538 TT                                 Rudenko
q   3.3369426            (2000.0)            P               Q
n   0.11414272     Peri.  209.12786     -0.50452898     +0.85757903
a   4.2089191      Node    30.88946     -0.74962273     -0.37760305
e   0.2071735      Incl.   11.23720     -0.42838799     -0.34924798
P   8.63
From 612 observations 1993 Oct. 20-2020 Dec. 11, mean residual 0".5.

* Magnitudes Graph

        H = 14.0  G = 0.15

---------------------------------------------------------------------

The orbital elements are published on M.P.E.C. 2021-B143.
The magnitudes graphs are made with Comet for Windows.

---------------------------------------------------------------------

Copyright(C) Seiichi Yoshida (comet@aerith.net). All rights reserved.